TimeCEST,TemperatureF,Dew PointF,Humidity,Sea Level PressureIn,VisibilityMPH,Wind Direction,Wind SpeedMPH,Gust SpeedMPH,PrecipitationIn,Events,Conditions,WindDirDegrees,DateUTC
12:00 AM,53.6,50.0,88,30.15,6.2,SW,4.6,-,N/A,,Scattered Clouds,220,2013-10-24 22:00:00
12:30 AM,50.0,48.2,94,30.15,6.2,WSW,3.5,-,N/A,,Partly Cloudy,250,2013-10-24 22:30:00
1:00 AM,50.0,48.2,94,30.15,-9999.0,East,2.3,-,N/A,,Clear,90,2013-10-24 23:00:00
1:30 AM,50.0,48.2,94,30.12,6.2,ESE,2.3,-,N/A,,Partly Cloudy,120,2013-10-24 23:30:00
2:00 AM,51,49,91,30.16,16,SE,4.5,,,,Mostly Cloudy,140,2013-10-25 00:00:00
2:00 AM,50.0,48.2,94,30.12,6.2,SSE,2.3,-,N/A,,Mostly Cloudy,160,2013-10-25 00:00:00
2:30 AM,51.8,48.2,88,30.12,6.2,Variable,2.3,-,N/A,,Partly Cloudy,0,2013-10-25 00:30:00
3:00 AM,50.0,46.4,87,30.12,6.2,SE,3.5,-,N/A,,Partly Cloudy,130,2013-10-25 01:00:00
3:30 AM,50.0,48.2,94,30.12,6.2,ESE,2.3,-,N/A,,Partly Cloudy,110,2013-10-25 01:30:00
4:00 AM,50.0,48.2,94,30.12,6.2,SE,2.3,-,N/A,,Partly Cloudy,140,2013-10-25 02:00:00
4:30 AM,46.4,44.6,93,30.12,6.2,North,2.3,-,N/A,Fog,Shallow Fog,10,2013-10-25 02:30:00
5:00 AM,46.4,44.6,93,30.12,5.0,Variable,1.2,-,N/A,Fog,Fog,0,2013-10-25 03:00:00
5:16 AM,44.6,44.6,100,30.12,3.7,Calm,Calm,-,N/A,Fog,Shallow Fog,0,2013-10-25 03:16:00
5:17 AM,44.6,44.6,100,30.12,2.8,Calm,Calm,-,N/A,Fog,Fog,0,2013-10-25 03:17:00
5:21 AM,44.6,44.6,100,30.12,3.7,Calm,Calm,-,N/A,Fog,Fog,0,2013-10-25 03:21:00
5:30 AM,44.6,42.8,93,30.12,2.8,NW,1.2,-,N/A,Fog,Shallow Fog,310,2013-10-25 03:30:00
5:39 AM,44.6,44.6,100,30.12,-9999.0,Calm,Calm,-,N/A,Fog,Shallow Fog,0,2013-10-25 03:39:00
6:00 AM,44.6,42.8,93,30.12,0.7,Variable,1.2,-,N/A,,Scattered Clouds,0,2013-10-25 04:00:00
6:30 AM,46.4,44.6,93,30.12,0.9,ESE,3.5,-,N/A,Fog,Fog,110,2013-10-25 04:30:00
7:00 AM,46.4,46.4,100,30.12,0.6,ESE,3.5,-,N/A,Fog,Fog,110,2013-10-25 05:00:00
7:03 AM,46.4,44.6,93,30.12,0.6,ESE,2.3,-,N/A,Fog,Fog,120,2013-10-25 05:03:00
7:10 AM,44.6,42.8,93,30.12,0.5,ESE,2.3,-,N/A,Fog,Fog,110,2013-10-25 05:10:00
7:18 AM,42.8,42.8,100,30.12,0.4,Variable,2.3,-,N/A,Fog,Fog,0,2013-10-25 05:18:00
7:30 AM,42.8,41.0,93,30.12,0.3,Variable,2.3,-,N/A,Fog,Fog,0,2013-10-25 05:30:00
7:31 AM,42.8,41.0,93,30.12,0.3,NNE,3.5,-,N/A,Fog,Fog,20,2013-10-25 05:31:00
7:39 AM,42.8,42.8,100,30.12,0.3,NNE,3.5,-,N/A,Fog,Fog,20,2013-10-25 05:39:00
7:47 AM,44.6,42.8,93,30.12,0.2,NNE,4.6,-,N/A,Fog,Fog,30,2013-10-25 05:47:00
8:00 AM,45,44,96,30.16,0,East,2.2,,,Fog,Heavy Fog,80,2013-10-25 06:00:00
8:00 AM,44.6,44.6,100,30.12,0.1,NNE,3.5,-,N/A,Fog,Fog,30,2013-10-25 06:00:00
8:09 AM,44.6,44.6,100,30.12,0.1,NNE,2.3,-,N/A,Fog,Fog,20,2013-10-25 06:09:00
8:30 AM,44.6,42.8,93,30.12,0.1,ESE,3.5,-,N/A,Fog,Fog,110,2013-10-25 06:30:00
8:48 AM,44.6,44.6,100,30.12,0.2,East,3.5,-,N/A,Fog,Fog,100,2013-10-25 06:48:00
9:00 AM,44.6,44.6,100,30.12,0.1,ESE,3.5,-,N/A,Fog,Fog,120,2013-10-25 07:00:00
9:21 AM,46.4,46.4,100,30.12,0.2,Variable,2.3,-,N/A,Fog,Fog,0,2013-10-25 07:21:00
9:30 AM,46.4,46.4,100,30.12,0.2,Variable,2.3,-,N/A,Fog,Fog,0,2013-10-25 07:30:00
9:37 AM,48.2,46.4,93,30.12,0.2,ESE,4.6,-,N/A,Fog,Fog,120,2013-10-25 07:37:00
9:49 AM,48.2,46.4,93,30.12,0.2,ESE,3.5,-,N/A,Fog,Fog,110,2013-10-25 07:49:00
9:55 AM,48.2,46.4,93,30.12,0.3,SE,3.5,-,N/A,Fog,Fog,130,2013-10-25 07:55:00
10:00 AM,48.2,48.2,100,30.12,0.3,SE,3.5,-,N/A,Fog,Fog,130,2013-10-25 08:00:00
10:07 AM,48.2,48.2,100,30.12,1.1,ESE,3.5,-,N/A,,Overcast,120,2013-10-25 08:07:00
10:12 AM,48.2,48.2,100,30.12,1.9,SE,3.5,-,N/A,,Mostly Cloudy,130,2013-10-25 08:12:00
10:16 AM,48.2,48.2,100,30.12,2.8,Variable,2.3,-,N/A,,Overcast,0,2013-10-25 08:16:00
10:30 AM,50.0,48.2,94,30.12,3.7,Variable,2.3,-,N/A,,Mostly Cloudy,0,2013-10-25 08:30:00
11:00 AM,51.8,50.0,94,30.12,3.1,Variable,2.3,-,N/A,,Overcast,0,2013-10-25 09:00:00
11:12 AM,51.8,50.0,94,30.12,2.2,ENE,3.5,-,N/A,,Overcast,60,2013-10-25 09:12:00
11:30 AM,51.8,50.0,94,30.12,2.2,East,4.6,-,N/A,,Overcast,80,2013-10-25 09:30:00
11:41 AM,51.8,51.8,100,30.12,3.1,ENE,5.8,-,N/A,,Overcast,70,2013-10-25 09:41:00
11:43 AM,51.8,51.8,100,30.12,2.5,ENE,5.8,-,N/A,,Overcast,70,2013-10-25 09:43:00
12:00 PM,51.8,51.8,100,30.12,2.5,East,4.6,-,N/A,,Overcast,80,2013-10-25 10:00:00
12:05 PM,51.8,51.8,100,30.12,2.8,East,4.6,-,N/A,,Overcast,80,2013-10-25 10:05:00
12:31 PM,51.8,51.8,100,30.12,2.5,NE,4.6,-,N/A,,Overcast,50,2013-10-25 10:31:00
1:00 PM,51.8,51.8,100,30.12,3.1,East,4.6,-,N/A,,Overcast,80,2013-10-25 11:00:00
1:30 PM,53.6,53.6,100,30.12,3.7,NE,4.6,-,N/A,,Overcast,50,2013-10-25 11:30:00
2:00 PM,55,52,86,30.12,4,ENE,4.5,,,,Mist,60,2013-10-25 12:00:00
2:00 PM,55.4,51.8,88,30.09,4.3,ENE,5.8,-,N/A,,Overcast,60,2013-10-25 12:00:00
2:30 PM,57.2,51.8,82,30.09,5.0,Variable,2.3,-,N/A,,Overcast,0,2013-10-25 12:30:00
3:00 PM,57.2,51.8,82,30.09,5.6,North,4.6,-,N/A,,Overcast,10,2013-10-25 13:00:00
3:30 PM,55.4,51.8,88,30.09,4.3,North,6.9,-,N/A,,Overcast,10,2013-10-25 13:30:00
4:00 PM,55.4,51.8,88,30.09,3.7,North,5.8,-,N/A,,Overcast,350,2013-10-25 14:00:00
4:30 PM,55.4,51.8,88,30.09,3.7,North,4.6,-,N/A,,Mostly Cloudy,10,2013-10-25 14:30:00
5:00 PM,53.6,51.8,94,30.09,3.1,NNW,5.8,-,N/A,,Mostly Cloudy,340,2013-10-25 15:00:00
5:30 PM,51.8,50.0,94,30.06,-9999.0,ENE,4.6,-,N/A,,Scattered Clouds,70,2013-10-25 15:30:00
6:00 PM,51.8,50.0,94,30.09,2.2,North,3.5,-,N/A,,Mist,360,2013-10-25 16:00:00
6:30 PM,51.8,50.0,94,30.09,2.2,NNW,3.5,-,N/A,,Scattered Clouds,330,2013-10-25 16:30:00
6:35 PM,51.8,50.0,94,30.09,1.7,NNW,2.3,-,N/A,Fog,Scattered Clouds,340,2013-10-25 16:35:00
6:51 PM,51.8,50.0,94,30.09,1.7,North,2.3,-,N/A,Fog,Scattered Clouds,10,2013-10-25 16:51:00
7:00 PM,50.0,50.0,100,30.09,0.6,North,2.3,-,N/A,Fog,Scattered Clouds,10,2013-10-25 17:00:00
7:10 PM,50.0,50.0,100,30.09,0.2,Calm,Calm,-,N/A,,Scattered Clouds,0,2013-10-25 17:10:00
7:21 PM,50.0,50.0,100,30.09,0.4,Variable,1.2,-,N/A,,Scattered Clouds,0,2013-10-25 17:21:00
7:30 PM,51.8,50.0,94,30.09,0.5,Variable,2.3,-,N/A,,Scattered Clouds,0,2013-10-25 17:30:00
7:32 PM,51.8,50.0,94,30.09,1.7,East,3.5,-,N/A,Fog,Scattered Clouds,80,2013-10-25 17:32:00
7:47 PM,50.0,50.0,100,30.09,0.6,Variable,2.3,-,N/A,Fog,Fog,0,2013-10-25 17:47:00
8:00 PM,49,48,97,30.11,1,East,4.5,,,Fog,Partial Fog,80,2013-10-25 18:00:00
8:00 PM,50.0,50.0,100,30.09,0.6,NE,2.3,-,N/A,Fog,Fog,50,2013-10-25 18:00:00
8:15 PM,48.2,48.2,100,30.06,0.4,Variable,1.2,-,N/A,Fog,Fog,0,2013-10-25 18:15:00
8:30 PM,50.0,48.2,94,30.06,0.4,Variable,2.3,-,N/A,Fog,Fog,0,2013-10-25 18:30:00
9:00 PM,48.2,48.2,100,30.06,0.6,Variable,1.2,-,N/A,Fog,Fog,0,2013-10-25 19:00:00
9:22 PM,48.2,48.2,100,30.06,0.5,NW,3.5,-,N/A,Fog,Fog,320,2013-10-25 19:22:00
9:30 PM,48.2,48.2,100,30.06,0.4,NW,3.5,-,N/A,Fog,Fog,310,2013-10-25 19:30:00
9:39 PM,48.2,48.2,100,30.06,0.4,NNW,3.5,-,N/A,Fog,Fog,340,2013-10-25 19:39:00
9:49 PM,50.0,48.2,94,30.06,0.3,North,3.5,-,N/A,Fog,Fog,360,2013-10-25 19:49:00
10:00 PM,50.0,48.2,94,30.06,0.2,Variable,2.3,-,N/A,Fog,Fog,0,2013-10-25 20:00:00
10:30 PM,50.0,48.2,94,30.06,0.2,Variable,2.3,-,N/A,Fog,Fog,0,2013-10-25 20:30:00
10:42 PM,50.0,48.2,94,30.06,0.2,Calm,Calm,-,N/A,Fog,Fog,0,2013-10-25 20:42:00
11:00 PM,50.0,48.2,94,30.06,0.2,Variable,1.2,-,N/A,Fog,Fog,0,2013-10-25 21:00:00
11:30 PM,50.0,50.0,100,30.06,0.2,Variable,1.2,-,N/A,Fog,Fog,0,2013-10-25 21:30:00